GW3114 Weather Reports


Display with metric or nautical units.
time (UTC)temp
F
wind
direction
speed
MPH
gust
MPH
rain 1hr
in
rain 24hr
in
rain mn
in
humidity
%
barometer
mb
20260901224849 89 233 1.0 2.0 0.00 0.00 0.00 72 1014.7
20260901223847 89 226 1.0 1.0 0.00 0.00 0.00 73 1014.7
20260901222844 90 220 1.0 1.0 0.00 0.00 0.00 71 1014.6
20260901221842 91 217 1.0 1.0 0.00 0.00 0.00 71 1014.4
20260901220837 93 203 0.0 0.0 0.00 0.00 0.00 69 1014.6
20260901215835 91 230 0.0 0.0 0.00 0.00 0.00 70 1014.5
20260901214833 90 218 0.0 0.0 0.00 0.00 0.00 71 1014.6
20260901213833 90 222 0.0 0.0 0.00 0.00 0.00 72 1014.8
20260901212833 90 224 0.0 0.0 0.00 0.00 0.00 70 1014.7
20260901211831 91 230 0.0 0.0 0.00 0.00 0.00 68 1014.5
20260901210828 92 218 1.0 1.0 0.00 0.00 0.00 65 1014.7
20260901205825 94 220 0.0 0.0 0.00 0.00 0.00 62 1014.6
20260901204820 96 200 3.0 3.0 0.00 0.00 0.00 58 1014.8
20260901203816 95 210 0.0 1.0 0.00 0.00 0.00 63 1014.6
20260901202811 96 177 0.0 1.0 0.00 0.00 0.00 59 1014.7
20260901201809 95 220 0.0 1.0 0.00 0.00 0.00 61 1014.9
20260901200809 97 221 0.0 0.0 0.00 0.00 0.00 59 1014.8
20260901195807 96 294 2.0 3.0 0.00 0.00 0.00 59 1015.0
20260901194802 95 246 1.0 2.0 0.00 0.00 0.00 60 1015.5
20260901193759 95 160 1.0 2.0 0.00 0.00 0.00 59 1015.4
20260901192758 93 244 3.0 3.0 0.00 0.00 0.00 63 1015.5
20260901191756 91 246 2.0 3.0 0.00 0.00 0.00 67 1015.6
20260901190753 93 253 1.0 2.0 0.00 0.00 0.00 67 1015.8
20260901185752 92 234 0.0 1.0 0.00 0.00 0.00 66 1016.3
20260901184746 91 244 2.0 2.0 0.00 0.00 0.00 66 1016.3
20260901183743 92 221 0.0 0.0 0.00 0.00 0.00 66 1016.3
20260901182739 93 229 2.0 3.0 0.00 0.00 0.00 65 1016.3
20260901181733 94 298 4.0 6.0 0.00 0.00 0.00 64 1016.4
20260901180732 95 259 3.0 6.0 0.00 0.00 0.00 61 1016.2
20260901175731 94 223 2.0 3.0 0.00 0.00 0.00 67 1016.1
20260901174727 95 191 1.0 1.0 0.00 0.00 0.00 63 1016.2
20260901173724 95 239 1.0 1.0 0.00 0.00 0.00 63 1016.4
20260901172721 94 293 4.0 4.0 0.00 0.00 0.00 64 1016.3
20260901171718 95 207 1.0 1.0 0.00 0.00 0.00 62 1016.3
20260901170717 94 244 1.0 1.0 0.00 0.00 0.00 64 1016.3
20260901165716 93 266 2.0 2.0 0.00 0.00 0.00 65 1016.3
20260901164714 95 290 3.0 3.0 0.00 0.00 0.00 64 1016.6
20260901163710 94 246 0.0 1.0 0.00 0.00 0.00 63 1016.7
20260901162704 92 308 4.0 4.0 0.00 0.00 0.00 67 1016.8
20260901161702 91 231 2.0 2.0 0.00 0.00 0.00 69 1016.8
20260901160659 91 252 4.0 4.0 0.00 0.00 0.00 66 1016.6
20260901155659 94 321 5.0 8.0 0.00 0.00 0.00 64 1016.8
20260901154655 94 231 1.0 2.0 0.00 0.00 0.00 68 1017.0
20260901153651 93 270 2.0 3.0 0.00 0.00 0.00 69 1017.1
20260901152651 92 233 1.0 1.0 0.00 0.00 0.00 68 1017.2
20260901151646 93 303 4.0 8.0 0.00 0.00 0.00 65 1017.3
20260901150644 92 231 2.0 3.0 0.00 0.00 0.00 67 1017.4
20260901145641 91 272 3.0 4.0 0.00 0.00 0.00 67 1017.1
20260901144637 91 243 0.0 1.0 0.00 0.00 0.00 69 1017.2
20260901143633 87 303 1.0 2.0 0.00 0.00 0.00 72 1017.4
20260901142631 88 292 2.0 2.0 0.00 0.00 0.00 68 1017.4
20260901141631 91 283 3.0 4.0 0.00 0.00 0.00 68 1017.5
20260901140630 89 264 3.0 3.0 0.00 0.00 0.00 68 1017.4
20260901135629 89 214 0.0 0.0 0.00 0.00 0.00 76 1017.5
20260901134626 87 166 0.0 0.0 0.00 0.00 0.00 80 1017.2
20260901133626 87 171 0.0 0.0 0.00 0.00 0.00 82 1017.7
20260901132625 88 162 0.0 0.0 0.00 0.00 0.00 77 1017.5
20260901131625 85 218 0.0 0.0 0.00 0.00 0.00 83 1017.5
20260901130621 83 201 0.0 0.0 0.00 0.00 0.00 84 1017.6
20260901125617 82 197 0.0 0.0 0.00 0.00 0.00 87 1017.6
20260901124613 82 208 0.0 0.0 0.00 0.00 0.00 86 1017.6
20260901123608 81 214 0.0 0.0 0.00 0.00 0.00 88 1017.7
20260901122606 78 193 0.0 0.0 0.00 0.00 0.00 93 1017.7
20260901121601 75 199 0.0 0.0 0.00 0.00 0.00 99 1017.8
20260901120602 73 213 0.0 0.0 0.00 0.00 0.00 99 1017.9
20260901115559 73 214 0.0 0.0 0.00 0.00 0.00 99 1017.5
20260901114557 73 214 0.0 0.0 0.00 0.00 0.00 99 1017.5
20260901113555 73 222 0.0 0.0 0.00 0.00 0.00 99 1017.5
20260901112550 73 221 0.0 0.0 0.00 0.00 0.00 99 1017.5
20260901111550 72 220 0.0 0.0 0.00 0.00 0.00 99 1017.3
20260901110550 72 211 0.0 0.0 0.00 0.00 0.00 99 1017.3
20260901105549 72 219 0.0 0.0 0.00 0.00 0.00 99 1017.2
20260901104544 72 223 0.0 0.0 0.00 0.00 0.00 99 1017.0
20260901103539 72 220 0.0 0.0 0.00 0.00 0.00 99 1017.2
20260901102535 72 218 0.0 0.0 0.00 0.00 0.00 99 1017.0
20260901101531 72 228 0.0 0.0 0.00 0.00 0.00 99 1017.0
20260901100531 72 225 0.0 0.0 0.00 0.00 0.00 99 1016.8
20260901095529 72 216 0.0 0.0 0.00 0.00 0.00 99 1016.9
20260901094527 72 230 0.0 0.0 0.00 0.00 0.00 99 1016.9
20260901093527 73 219 0.0 0.0 0.00 0.00 0.00 99 1017.0
20260901092524 73 215 0.0 0.0 0.00 0.00 0.00 99 1017.2
20260901091521 73 215 0.0 0.0 0.00 0.00 0.00 99 1017.0
20260901090521 73 221 0.0 0.0 0.00 0.00 0.00 98 1017.4
20260901085518 74 218 0.0 0.0 0.00 0.00 0.00 97 1017.1
20260901084516 75 211 0.0 0.0 0.00 0.00 0.00 97 1016.8
20260901083512 75 220 0.0 0.0 0.00 0.00 0.00 96 1017.2
20260901082511 75 214 0.0 0.0 0.00 0.00 0.00 96 1017.3
20260901081507 75 195 0.0 0.0 0.00 0.00 0.00 97 1017.3
20260901080507 75 177 0.0 0.0 0.00 0.00 0.00 98 1017.1
20260901075503 74 216 0.0 0.0 0.00 0.00 0.00 99 1017.2
20260901074502 74 219 0.0 0.0 0.00 0.00 0.00 99 1017.1
20260901073500 74 208 0.0 0.0 0.00 0.00 0.00 99 1017.4
20260901072455 74 210 0.0 0.0 0.00 0.00 0.00 99 1017.5
20260901071455 73 214 0.0 0.0 0.00 0.00 0.00 99 1017.7
20260901070450 72 207 0.0 0.0 0.00 0.00 0.00 99 1017.5
20260901065445 73 210 0.0 0.0 0.00 0.00 0.00 99 1017.6
20260901064442 73 210 0.0 0.0 0.00 0.00 0.00 99 1017.8
20260901063441 72 209 0.0 0.0 0.00 0.00 0.00 99 1017.8
20260901062438 72 203 0.0 0.0 0.00 0.00 0.00 99 1017.9
20260901061436 72 209 0.0 0.0 0.00 0.00 0.00 99 1018.0
20260901060432 72 211 0.0 0.0 0.00 0.00 0.00 99 1017.8
20260901055428 72 211 0.0 0.0 0.00 0.00 0.00 99 1017.8
20260901054427 72 213 0.0 0.0 0.00 0.00 0.00 99 1018.0
20260901053424 72 216 0.0 0.0 0.00 0.00 0.00 99 1017.9
20260901052420 72 214 0.0 0.0 0.00 0.00 0.00 99 1018.0
20260901051415 73 218 0.0 0.0 0.00 0.00 0.00 99 1018.2
20260901050411 73 219 0.0 0.0 0.00 0.00 0.00 99 1018.3
20260901045411 73 225 0.0 0.0 0.00 0.00 0.00 99 1018.4
20260901044408 73 223 0.0 0.0 0.00 0.00 0.00 99 1018.4
20260901043406 73 217 0.0 0.0 0.00 0.00 0.00 99 1018.4
20260901042407 73 219 0.0 0.0 0.00 0.00 0.00 99 1018.7
20260901041402 73 216 0.0 0.0 0.00 0.00 0.00 99 1018.6
20260901040401 72 219 0.0 0.0 0.00 0.00 0.00 99 1018.6
20260901035400 72 210 0.0 0.0 0.00 0.00 0.00 99 1018.6
20260901034359 72 211 0.0 0.0 0.00 0.00 0.00 99 1019.0
20260901033400 73 207 0.0 0.0 0.00 0.00 0.00 99 1018.7
20260901032358 73 214 0.0 0.0 0.00 0.00 0.00 99 1018.7
20260901031355 73 223 0.0 0.0 0.00 0.00 0.00 99 1018.9
20260901030350 73 220 0.0 0.0 0.00 0.00 0.00 99 1018.8
20260901025349 73 223 0.0 0.0 0.00 0.00 0.00 99 1018.9
20260901024349 73 223 0.0 0.0 0.00 0.00 0.00 99 1018.8
20260901023349 73 213 0.0 0.0 0.00 0.00 0.00 99 1018.8
20260901022346 73 217 0.0 0.0 0.00 0.00 0.00 99 1018.9
20260901021343 73 223 0.0 0.0 0.00 0.00 0.00 99 1018.7
20260901020338 73 229 0.0 0.0 0.00 0.00 0.00 99 1018.6
20260901015335 73 220 0.0 0.0 0.00 0.00 0.00 99 1018.6
20260901014330 74 224 0.0 0.0 0.00 0.00 0.00 99 1018.6
20260901013326 74 223 0.0 0.0 0.00 0.00 0.00 99 1018.6
20260901012322 74 223 0.0 0.0 0.00 0.00 0.00 99 1018.6
20260901011320 75 223 0.0 0.0 0.00 0.00 0.00 99 1018.3
20260901010319 75 213 0.0 0.0 0.00 0.00 0.00 99 1018.7
20260901005314 75 222 0.0 0.0 0.00 0.00 0.00 99 1018.4
20260901004314 76 224 0.0 0.0 0.00 0.00 0.00 98 1018.3
20260901003309 76 229 0.0 0.0 0.00 0.00 0.00 98 1018.1
20260901002309 77 222 0.0 0.0 0.00 0.00 0.00 97 1018.2
20260901001305 77 219 0.0 0.0 0.00 0.00 0.00 97 1018.2
20260901000300 77 214 0.0 0.0 0.00 0.00 0.00 97 1018.3
20260831235301 78 221 0.0 0.0 0.00 0.00 0.00 95 1018.2
20260831234300 78 226 0.0 0.0 0.00 0.00 0.00 94 1018.1
20260831233257 79 226 0.0 0.0 0.00 0.00 0.00 93 1018.2
20260831232255 80 212 0.0 0.0 0.00 0.00 0.00 92 1018.1
20260831231253 81 220 0.0 0.0 0.00 0.00 0.00 90 1018.1
20260831230248 81 216 0.0 0.0 0.00 0.00 0.00 89 1018.2